When you browse on this site, cookies collect data to enhance your experience and personalize the content and advertising you see.
Visit our Privacy Policy to learn more. By continuing to use the site, you agree to this use of cookies and data.
  • In Belgium
  • List of Countries
  • For 7 days
  • Water Temperature
  • Satellite Maps
  • Weather Map
  • Weather Widgets
  • user-avatar
    Login

    Hourly Weather Zabegalovka

    Today, 26 May, Sunday

    Time Temperature Precipitation Wind Pressure Humidity
    00:00 +12°C° 0 mm 2 mps 738 mmHg 97%
    01:00 +12°C° 0 mm 2 mps 738 mmHg 98%
    02:00 +10°C° 0 mm 1 mps 738 mmHg 97%
    03:00 +11°C° 0 mm 1 mps 738 mmHg 96%
    04:00 +10°C° 0 mm 2 mps 738 mmHg 95%
    05:00 +10°C° 0 mm 2 mps 738 mmHg 94%
    06:00 +13°C° 0 mm 2 mps 739 mmHg 86%
    07:00 +13°C° 0 mm 3 mps 739 mmHg 79%
    08:00 +16°C° 0 mm 3 mps 739 mmHg 71%
    09:00 +17°C° 0 mm 3 mps 739 mmHg 64%
    10:00 +18°C° 0 mm 3 mps 739 mmHg 57%
    11:00 +19°C° 0 mm 4 mps 739 mmHg 50%
    12:00 +19°C° 0 mm 4 mps 739 mmHg 49%
    13:00 +20°C° 0 mm 3 mps 739 mmHg 48%
    14:00 +20°C° 0 mm 3 mps 739 mmHg 47%
    15:00 +20°C° 0 mm 3 mps 739 mmHg 49%
    16:00 +19°C° 0 mm 3 mps 738 mmHg 50%
    17:00 +19°C° 0 mm 3 mps 738 mmHg 52%
    18:00 +17°C° 0 mm 2 mps 738 mmHg 61%
    19:00 +15°C° 0 mm 1 mps 738 mmHg 69%
    20:00 +12°C° 0 mm 1 mps 738 mmHg 78%
    21:00 +12°C° 0 mm 1 mps 737 mmHg 78%
    22:00 +12°C° 0 mm 1 mps 737 mmHg 78%
    23:00 +11°C° 0 mm 1 mps 737 mmHg 78%

    Tomorrow, 27 May, Monday

    Time Temperature Precipitation Wind Pressure Humidity
    00:00 +10°C° 0 mm 2 mps 737 mmHg 82%
    01:00 +10°C° 0 mm 2 mps 737 mmHg 87%
    02:00 +9°C° 0 mm 3 mps 737 mmHg 92%
    03:00 +10°C° 0 mm 3 mps 738 mmHg 89%
    04:00 +10°C° 0 mm 4 mps 738 mmHg 86%
    05:00 +10°C° 0 mm 4 mps 738 mmHg 84%
    06:00 +10°C° 0 mm 4 mps 738 mmHg 80%
    07:00 +11°C° 0 mm 4 mps 739 mmHg 77%
    08:00 +10°C° 0 mm 5 mps 739 mmHg 73%
    09:00 +12°C° 0 mm 5 mps 739 mmHg 70%
    10:00 +12°C° 0 mm 5 mps 740 mmHg 67%
    11:00 +13°C° 0 mm 5 mps 740 mmHg 64%
    12:00 +14°C° 0 mm 5 mps 740 mmHg 64%
    13:00 +14°C° 0 mm 5 mps 740 mmHg 64%
    14:00 +15°C° 0 mm 5 mps 740 mmHg 64%
    15:00 +15°C° 0.1 mm 5 mps 741 mmHg 67%
    16:00 +15°C° 0.1 mm 5 mps 741 mmHg 70%
    17:00 +15°C° 0.1 mm 4 mps 741 mmHg 73%
    18:00 +14°C° 0.1 mm 4 mps 741 mmHg 78%
    19:00 +14°C° 0.1 mm 3 mps 741 mmHg 84%
    20:00 +13°C° 0.1 mm 3 mps 741 mmHg 90%
    21:00 +13°C° 0.2 mm 3 mps 741 mmHg 93%
    22:00 +13°C° 0.2 mm 3 mps 741 mmHg 95%
    23:00 +12°C° 0.2 mm 3 mps 741 mmHg 97%

    Day after tomorrow, 28 May, Tuesday

    Time Temperature Precipitation Wind Pressure Humidity
    00:00 +13°C° 0 mm 2 mps 742 mmHg 98%
    01:00 +13°C° 0 mm 2 mps 742 mmHg 98%
    02:00 +13°C° 0 mm 2 mps 742 mmHg 98%
    03:00 +14°C° 0 mm 2 mps 743 mmHg 97%
    04:00 +14°C° 0 mm 2 mps 743 mmHg 96%
    05:00 +14°C° 0 mm 2 mps 743 mmHg 95%
    06:00 +15°C° 0 mm 2 mps 744 mmHg 91%
    07:00 +17°C° 0 mm 3 mps 744 mmHg 87%
    08:00 +18°C° 0 mm 3 mps 744 mmHg 83%
    09:00 +19°C° 0.2 mm 3 mps 744 mmHg 78%
    10:00 +20°C° 0.2 mm 4 mps 744 mmHg 74%
    11:00 +21°C° 0.2 mm 4 mps 745 mmHg 69%
    12:00 +22°C° 0.4 mm 4 mps 745 mmHg 68%
    13:00 +22°C° 0.4 mm 4 mps 745 mmHg 68%
    14:00 +24°C° 0.4 mm 3 mps 745 mmHg 67%
    15:00 +24°C° 0.3 mm 3 mps 745 mmHg 69%
    16:00 +23°C° 0.3 mm 2 mps 744 mmHg 71%
    17:00 +23°C° 0.3 mm 2 mps 744 mmHg 73%
    18:00 +21°C° 0.6 mm 2 mps 744 mmHg 79%
    19:00 +20°C° 0.6 mm 2 mps 744 mmHg 85%
    20:00 +18°C° 0.6 mm 2 mps 744 mmHg 91%
    21:00 +18°C° 1.8 mm 2 mps 744 mmHg 93%
    22:00 +18°C° 1.8 mm 3 mps 744 mmHg 94%
    23:00 +18°C° 1.8 mm 3 mps 744 mmHg 96%

    29 May, Wednesday

    Time Temperature Precipitation Wind Pressure Humidity
    00:00 +18°C° 0.2 mm 3 mps 744 mmHg 96%
    01:00 +18°C° 0.2 mm 3 mps 744 mmHg 95%
    02:00 +18°C° 0.2 mm 4 mps 744 mmHg 95%
    03:00 +18°C° 0 mm 4 mps 744 mmHg 95%
    04:00 +18°C° 0 mm 4 mps 744 mmHg 94%
    05:00 +18°C° 0 mm 3 mps 745 mmHg 94%
    06:00 +19°C° 0 mm 4 mps 745 mmHg 89%
    07:00 +20°C° 0 mm 4 mps 745 mmHg 83%
    08:00 +22°C° 0 mm 4 mps 745 mmHg 78%
    09:00 +23°C° 0 mm 4 mps 745 mmHg 71%
    10:00 +26°C° 0 mm 5 mps 746 mmHg 63%
    11:00 +27°C° 0 mm 5 mps 746 mmHg 56%
    12:00 +28°C° 0 mm 5 mps 746 mmHg 53%
    13:00 +28°C° 0 mm 5 mps 746 mmHg 50%
    14:00 +29°C° 0 mm 6 mps 745 mmHg 48%
    15:00 +28°C° 0 mm 5 mps 745 mmHg 51%
    16:00 +28°C° 0 mm 4 mps 745 mmHg 53%
    17:00 +27°C° 0 mm 4 mps 745 mmHg 56%
    18:00 +26°C° 0 mm 4 mps 745 mmHg 63%
    19:00 +25°C° 0 mm 3 mps 745 mmHg 70%
    20:00 +22°C° 0 mm 3 mps 745 mmHg 77%
    21:00 +21°C° 0 mm 3 mps 746 mmHg 79%
    22:00 +21°C° 0 mm 3 mps 746 mmHg 82%
    23:00 +20°C° 0 mm 3 mps 746 mmHg 85%

    30 May, Thursday

    Time Temperature Precipitation Wind Pressure Humidity
    00:00 +19°C° 0 mm 3 mps 746 mmHg 87%
    01:00 +19°C° 0 mm 3 mps 747 mmHg 89%
    02:00 +18°C° 0 mm 3 mps 747 mmHg 90%
    03:00 +19°C° 0 mm 3 mps 747 mmHg 89%
    04:00 +19°C° 0 mm 3 mps 747 mmHg 87%
    05:00 +19°C° 0 mm 4 mps 747 mmHg 86%
    06:00 +21°C° 0 mm 4 mps 747 mmHg 80%
    07:00 +22°C° 0 mm 4 mps 747 mmHg 75%
    08:00 +25°C° 0 mm 4 mps 747 mmHg 69%
    09:00 +25°C° 0.2 mm 4 mps 747 mmHg 66%
    10:00 +26°C° 0.2 mm 4 mps 747 mmHg 63%
    11:00 +27°C° 0.2 mm 5 mps 747 mmHg 59%
    12:00 +27°C° 1.4 mm 4 mps 747 mmHg 63%
    13:00 +26°C° 1.4 mm 4 mps 747 mmHg 67%
    14:00 +26°C° 1.4 mm 4 mps 747 mmHg 71%
    15:00 +25°C° 1.1 mm 4 mps 747 mmHg 76%
    16:00 +24°C° 1.1 mm 3 mps 746 mmHg 80%
    17:00 +22°C° 1.1 mm 3 mps 746 mmHg 85%
    18:00 +21°C° 0.1 mm 2 mps 746 mmHg 87%
    19:00 +20°C° 0.1 mm 2 mps 747 mmHg 89%
    20:00 +20°C° 0.1 mm 1 mps 747 mmHg 92%
    21:00 +19°C° 0 mm 1 mps 747 mmHg 94%
    22:00 +19°C° 0 mm 1 mps 747 mmHg 95%
    23:00 +18°C° 0 mm 1 mps 747 mmHg 97%

    31 May, Friday

    Time Temperature Precipitation Wind Pressure Humidity
    00:00 +18°C° 0 mm 1 mps 748 mmHg 97%
    01:00 +16°C° 0 mm 2 mps 748 mmHg 97%
    02:00 +16°C° 0 mm 2 mps 748 mmHg 98%
    03:00 +15°C° 0.4 mm 2 mps 748 mmHg 96%
    04:00 +13°C° 0.4 mm 3 mps 748 mmHg 95%
    05:00 +12°C° 0.4 mm 3 mps 748 mmHg 94%
    06:00 +12°C° 0.1 mm 3 mps 748 mmHg 90%
    07:00 +11°C° 0.1 mm 3 mps 748 mmHg 86%
    08:00 +11°C° 0.1 mm 3 mps 749 mmHg 83%
    09:00 +12°C° 0 mm 3 mps 749 mmHg 75%
    10:00 +13°C° 0 mm 3 mps 749 mmHg 68%
    11:00 +14°C° 0 mm 3 mps 749 mmHg 60%
    12:00 +14°C° 0 mm 3 mps 748 mmHg 59%
    13:00 +16°C° 0 mm 2 mps 748 mmHg 58%
    14:00 +16°C° 0 mm 2 mps 748 mmHg 56%
    15:00 +17°C° 0 mm 2 mps 747 mmHg 57%
    16:00 +18°C° 0 mm 1 mps 747 mmHg 57%
    17:00 +19°C° 0 mm 1 mps 747 mmHg 58%
    18:00 +18°C° 0.1 mm 1 mps 747 mmHg 64%
    19:00 +16°C° 0.1 mm 1 mps 746 mmHg 69%
    20:00 +14°C° 0.1 mm 1 mps 746 mmHg 75%
    21:00 +14°C° 0.1 mm 1 mps 746 mmHg 76%
    22:00 +13°C° 0.1 mm 1 mps 746 mmHg 77%
    23:00 +13°C° 0.1 mm 1 mps 746 mmHg 78%
    Show more